Regional Weather Roundup
Issued by NWS

Home | Current Version | Previous Version | Text Only | Print | Product List | Glossary Off
Versions: 1 2 3 4 5 6 7 8 9 10 11 12 13 14 15 16 17 18 19 20 21 22 23 24 25 26 27 28 29 30 31 32 33 34 35 36 37 38 39 40 41 42 43 44 45 46 47 48 49 50

000
ASUS43 KDTX 211310
RWRMI
MICHIGAN HOURLY REGIONAL WEATHER ROUNDUP
NATIONAL WEATHER SERVICE DETROIT/PONTIAC MI
900 AM EDT SAT OCT 21 2017

NOTE: "FAIR" INDICATES FEW OR NO CLOUDS BELOW 12,000 FEET WITH NO
SIGNIFICANT WEATHER AND/OR OBSTRUCTION TO VISIBILITY.

MIZ047>049-052>055-059>063-066>070-074>076-081>083-211400-
SOUTHEAST LOWER MICHIGAN

CITY           SKY/WX    TMP DP  RH WIND       PRES   REMARKS
ADRIAN         CLOUDY    48  47  96 E3        30.22S FOG
ALMA           PTCLDY    52  47  83 S12       30.16R
ANN ARBOR      MOSUNNY   43  42  97 W3        30.22R
BAD AXE        CLOUDY    54  48  81 S5        30.19R
CARO           CLOUDY    54  49  83 CALM      30.18R
DETROIT CITY   CLOUDY    56  53  90 S3        30.23R
DETROIT        CLOUDY    54  49  83 CALM      30.23R
FLINT          CLOUDY    56  49  77 S7        30.19R
GROSSE ILE     CLOUDY    60  56  87 S7        30.22R
HILLSDALE      MOSUNNY   54  48  82 S8        30.19S
HOWELL         MOSUNNY   52  50  93 SE5       30.20R FOG

CITY           SKY/WX    TMP DP  RH WIND       PRES   REMARKS
JACKSON        CLOUDY    56  50  80 SE8       30.19S
LAMBERTVILLE   MOSUNNY   56  50  79 CALM      30.23R
LANSING        PTCLDY    57  49  74 S8        30.17S
LAPEER         FAIR      48  47  97 CALM      30.20S
MASON          PTCLDY    57  50  76 S7        30.18S
MONROE         MOSUNNY   52  48  86 CALM      30.22R
MT. CLEMENS    PTSUNNY   51  51 100 W1        30.21R
PONTIAC        CLOUDY    54  50  86 CALM      30.21R
PORT HOPE        N/A     60  49  66 VRB6      30.16R
PORT HURON     CLOUDY    48  46  93 CALM      30.23S
TRI CITIES     CLOUDY    56  51  84 S8        30.17S
MIDLAND        FAIR      54  49  82 S3        30.15R
TROY           CLOUDY    55  49  81 SW3       30.24R
SAGINAW HB     CLOUDY    54  50  87 S6        30.16S
$$
MIZ043>046-050>051-056>058-064>065-071>073-077>080-211400-
SOUTHWEST LOWER MICHIGAN

CITY           SKY/WX    TMP DP  RH WIND       PRES   REMARKS
BATTLE CREEK   MOCLDY    56  50  80 S8        30.18R
BENTON HARBOR  CLOUDY    59  49  69 S8        30.12R
BIG RAPIDS     CLOUDY    49  47  93 SE3       30.12R
COLDWATER      PTCLDY    57  51  79 SE3       30.18R
FREMONT        FAIR      57  49  74 SE5       30.10R
HOLLAND        CLOUDY    56  49  77 S8        30.12S
GRAND RAPIDS   CLOUDY    54  51  90 S8        30.14R
IONIA          FAIR      56  49  78 S7        30.15R
KALAMAZOO      CLOUDY    57  47  69 S7        30.17R
LUDINGTON      MOCLDY    57  50  76 SE5       30.05S
MARSHALL       MOCLDY    56  51  83 S6        30.18R
MOUNT PLEASANT MOCLDY    54  50  85 CALM      30.14R
MUSKEGON       CLOUDY    60  49  66 S9        30.10S
SOUTH HAVEN    MOCLDY    58  49  72 S7        30.12S
$$
MIZ016>042-211400-
NORTHERN LOWER MICHIGAN

CITY           SKY/WX    TMP DP  RH WIND       PRES   REMARKS
ALPENA         MOCLDY    57  51  80 S6        30.12R
BEAVER ISLAND  CLOUDY    63  50  62 S12G18    30.02R
BELLAIRE       PTCLDY    58  49  71 S3        30.07R
CADILLAC       PTCLDY    59  47  64 S9        30.10R
CHARLEVOIX     MOCLDY    60  49  65 SE7       30.07R
FRANKFORT      CLOUDY    61  50  67 SE6       30.04S
GAYLORD        CLOUDY    55  47  74 S10       30.10R
GRAYLING       PTCLDY    46  43  89 S6        30.11S
HARBOR SPRINGS PTCLDY    57  49  75 CALM      30.07R
HOUGHTON LAKE  CLOUDY    54  49  83 S9        30.12S
MANISTEE       CLOUDY    58  51  78 SE5       30.05R
OSCODA         PTCLDY    55  53  94 SW6       30.14R
PELLSTON       CLOUDY    59  49  69 SE7       30.05S
ROGERS CITY    PTCLDY    58  49  72 SW9       30.08S
TRAVERSE CITY  MOCLDY    62  48  60 SE5       30.04S
$$
MIZ007>008-015-211400-
EASTERN UPPER MICHIGAN

CITY           SKY/WX    TMP DP  RH WIND       PRES   REMARKS
KINROSS        PTCLDY    52  49  89 SE7       30.05R
MACKINAC ISLAN CLOUDY    62  47  58 S8        30.04R
NEWBERRY       CLOUDY    59  54  85 S12G20    29.99S
S. S. MARIE    MOCLDY    51  49  92 E6        30.04S
MUNISING         N/A     62  51  67 S12G21    29.92R
$$
MIZ004>006-011>014-085-211400-
CENTRAL UPPER MICHIGAN

CITY           SKY/WX    TMP DP  RH WIND       PRES   REMARKS
MANISTIQUE     CLOUDY    58  52  80 S9G16     29.99R
ESCANABA       MOCLDY    59  54  83 S9        29.95S
MENOMINEE      MOCLDY    58  50  75 S7        29.96S
SAWYER-GWINN   CLEAR     54  48  82 S9        29.92S
$$
MIZ001>003-009>011-084-211400-
WESTERN UPPER MICHIGAN

CITY           SKY/WX    TMP DP  RH WIND       PRES   REMARKS
IRON MOUNTAIN  PTCLDY    54  45  71 SE7       29.90F
HOUGHTON       CLOUDY    62  45  53 S17G24    29.81F
COPPER HARBOR    N/A     63  47  55 SW8       29.81F
IRONWOOD       PTCLDY    61  47  59 S15G22    29.76F
$$

ABBREVIATIONS USED IN REMARKS
   TC - TEMPERATURE IN CELSIUS
  WCI - WIND CHILL INDEX
   HX - HEAT INDEX
  VSB - VISIBILITY





USA.gov is the U.S. government's official web portal to all federal, state and local government web resources and services.